period_start,C,m1,H,J0,J1,J2,J3,J4,J5,JA,JB,JC,JD,JJ,JK,JN,#
2013-11-15 00:00:46,0.04,0.49,0.00,26.45,28.07,30.80,5.92,30.58,1015.16,2041.93,3276.19,3210.96,3458.00,350.34,320.07,13.62,0000 0000 0000 0000 000000
2013-11-15 00:01:46,0.02,0.49,0.00,26.43,28.07,30.79,5.83,30.54,1015.17,2041.90,3276.08,3210.96,3458.00,350.11,319.91,13.63,0000 0000 0000 0000 000000
2013-11-15 00:02:47,0.00,0.49,0.00,26.44,28.07,30.76,5.91,30.50,1015.16,2041.94,3276.04,3210.95,3458.00,349.53,319.35,13.63,0000 0000 0000 0000 000000
2013-11-15 00:03:47,0.03,0.49,0.00,26.45,28.07,30.74,5.69,30.33,1015.16,2041.96,3276.01,3210.91,3458.00,348.63,318.52,13.64,0000 0000 0000 0000 000000
2013-11-15 00:04:47,0.01,0.49,0.00,26.45,28.07,30.82,5.92,30.50,1015.17,2041.92,3276.00,3210.69,3457.99,350.39,320.14,13.65,0000 0000 0000 0000 000000
2013-11-15 00:05:47,0.01,0.49,0.00,26.47,28.07,30.84,5.90,30.42,1015.17,2041.87,3276.00,3210.51,3457.95,349.68,319.58,13.65,0000 0000 0000 0000 000000
2013-11-15 00:06:48,0.03,0.49,0.00,26.46,28.07,30.83,5.92,30.50,1015.18,2041.93,3276.00,3210.57,3457.95,349.62,319.43,13.66,0000 0000 0000 0000 000000
2013-11-15 00:07:48,0.02,0.49,0.00,26.47,28.07,30.79,5.86,30.71,1015.18,2041.97,3276.00,3210.42,3457.91,349.28,319.11,13.66,0000 0000 0000 0000 000000
2013-11-15 00:08:48,0.06,0.49,0.00,26.47,28.07,30.82,5.83,30.46,1015.18,2041.95,3276.00,3210.22,3457.71,349.61,319.41,13.67,0000 0000 0000 0000 000000
2013-11-15 00:09:48,0.06,0.49,0.00,26.48,28.07,30.78,5.93,30.67,1015.17,2041.93,3275.94,3210.09,3457.35,350.15,319.89,13.67,0000 0000 0000 0000 000000
2013-11-15 00:10:48,0.05,0.49,0.00,26.47,28.07,30.80,5.71,30.42,1015.17,2041.90,3275.86,3210.04,3457.17,349.31,319.13,13.68,0000 0000 0000 0000 000000
2013-11-15 00:11:49,0.02,0.49,0.00,26.47,28.07,30.82,5.87,30.46,1015.17,2041.84,3275.64,3210.02,3457.07,349.26,319.09,13.69,0000 0000 0000 0000 000000
2013-11-15 00:12:49,-0.01,0.49,0.00,26.46,28.07,30.84,5.84,30.38,1015.18,2041.77,3275.32,3210.01,3457.02,350.06,319.82,13.69,0000 0000 0000 0000 000000
2013-11-15 00:13:49,-0.00,0.49,0.00,26.47,28.07,30.76,5.87,30.63,1015.18,2041.77,3275.15,3210.00,3457.00,350.29,320.02,13.70,0000 0000 0000 0000 000000
2013-11-15 00:14:49,0.02,0.50,0.00,26.48,28.07,30.81,5.75,30.67,1015.17,2041.85,3275.06,3210.00,3457.01,348.99,318.84,13.70,0000 0000 0000 0000 000000
2013-11-15 00:15:49,0.06,0.50,0.00,26.51,28.07,30.83,5.93,30.54,1015.17,2041.88,3275.07,3210.00,3457.02,350.21,319.96,13.71,0000 0000 0000 0000 000000
2013-11-15 00:16:50,0.04,0.50,0.00,26.51,28.07,30.88,5.77,30.42,1015.19,2041.90,3275.05,3210.00,3457.00,350.31,320.00,13.72,0000 0000 0000 0000 000000
2013-11-15 00:17:50,0.02,0.50,0.00,26.49,28.07,30.84,5.96,30.42,1015.22,2041.91,3275.03,3210.00,3457.00,350.93,320.59,13.72,0000 0000 0000 0000 000000
2013-11-15 00:18:50,0.00,0.50,0.00,26.47,28.07,30.81,5.92,30.58,1015.20,2041.85,3275.01,3209.98,3457.00,349.67,319.46,13.73,0000 0000 0000 0000 000000
2013-11-15 00:19:50,-0.05,0.50,0.00,26.47,28.07,30.79,5.93,30.46,1015.17,2041.86,3275.00,3209.98,3457.00,350.82,320.58,13.73,0000 0000 0000 0000 000000
2013-11-15 00:20:51,0.02,0.50,0.00,26.47,28.07,30.82,5.97,30.38,1015.18,2041.85,3275.00,3209.98,3457.00,351.08,320.76,13.74,0000 0000 0000 0000 000000
2013-11-15 00:21:51,-0.01,0.50,0.00,26.47,28.07,30.83,5.93,30.33,1015.19,2041.80,3274.99,3209.94,3456.99,350.13,320.27,13.74,0000 0000 0000 0000 000000
2013-11-15 00:22:51,-0.00,0.50,0.00,26.50,28.07,30.87,5.93,30.58,1015.16,2041.83,3274.96,3209.91,3456.95,349.64,319.31,13.75,0000 0000 0000 0000 000000
2013-11-15 00:23:51,0.04,0.50,0.00,26.50,28.07,30.82,5.96,30.46,1015.16,2041.85,3274.92,3209.89,3456.94,350.74,320.30,13.76,0000 0000 0000 0000 000000
2013-11-15 00:24:51,-0.01,0.50,0.00,26.49,28.07,30.84,5.87,30.50,1015.15,2041.78,3274.77,3209.65,3456.74,349.94,319.76,13.76,0000 0000 0000 0000 000000
2013-11-15 00:25:52,0.09,0.50,0.00,26.47,28.07,30.83,5.83,30.50,1015.16,2041.80,3274.67,3209.53,3456.55,348.65,318.52,13.77,0000 0000 0000 0000 000000
2013-11-15 00:26:52,0.07,0.50,0.00,26.46,28.07,30.86,5.86,30.54,1015.18,2041.85,3274.42,3209.47,3456.41,350.45,320.19,13.77,0000 0000 0000 0000 000000
2013-11-15 00:27:52,0.09,0.50,0.00,26.45,28.07,30.81,5.87,30.46,1015.17,2041.89,3274.24,3209.31,3456.24,349.96,319.74,13.78,0000 0000 0000 0000 000000
2013-11-15 00:28:52,0.12,0.50,0.00,26.46,28.07,30.85,5.89,30.58,1015.18,2041.88,3274.09,3209.14,3456.13,349.97,319.74,13.79,0000 0000 0000 0000 000000
2013-11-15 00:29:53,0.05,0.50,0.00,26.47,28.07,30.81,5.81,30.46,1015.16,2041.88,3274.03,3209.05,3456.05,350.17,319.91,13.79,0000 0000 0000 0000 000000
2013-11-15 00:30:53,0.03,0.50,0.00,26.45,28.07,30.78,5.83,30.46,1015.18,2041.93,3273.91,3209.02,3456.02,349.92,319.70,13.80,0000 0000 0000 0000 000000
2013-11-15 00:31:53,0.08,0.50,0.00,26.46,28.07,30.84,5.85,30.54,1015.17,2041.81,3273.46,3209.00,3455.99,350.15,319.91,13.80,0000 0000 0000 0000 000000
2013-11-15 00:32:53,-0.07,0.50,0.00,26.48,28.07,30.87,5.95,30.71,1015.18,2041.78,3273.18,3208.95,3455.98,349.63,319.41,13.81,0000 0000 0000 0000 000000
2013-11-15 00:33:54,0.07,0.50,0.00,26.46,28.07,30.84,5.83,30.46,1015.17,2041.81,3273.09,3208.97,3455.97,350.82,320.52,13.82,0000 0000 0000 0000 000000
2013-11-15 00:34:54,0.00,0.50,0.00,26.45,28.07,30.77,5.85,30.46,1015.18,2041.83,3273.03,3208.96,3455.89,349.65,319.46,13.82,0000 0000 0000 0000 000000
2013-11-15 00:35:54,0.03,0.50,0.00,26.43,28.07,30.84,5.83,30.46,1015.17,2041.85,3273.01,3208.93,3455.85,349.30,319.16,13.83,0000 0000 0000 0000 000000
2013-11-15 00:36:54,0.06,0.50,0.00,26.44,28.07,30.80,5.92,30.29,1015.19,2041.91,3273.00,3208.89,3455.78,350.01,319.81,13.83,0000 0000 0000 0000 000000
2013-11-15 00:37:54,0.06,0.50,0.00,26.45,28.07,30.81,5.88,30.63,1015.19,2041.92,3273.00,3208.74,3455.50,349.86,319.88,13.84,0000 0000 0000 0000 000000
2013-11-15 00:38:54,0.08,0.50,0.00,26.47,28.07,30.88,5.74,30.33,1015.23,2041.88,3272.98,3208.49,3455.35,349.70,319.57,13.84,0000 0000 0000 0000 000000
2013-11-15 00:39:55,0.00,0.50,0.00,26.48,28.07,30.81,5.82,30.29,1015.26,2041.85,3272.96,3208.25,3455.18,349.97,319.93,13.85,0000 0000 0000 0000 000000
2013-11-15 00:40:55,0.09,0.50,0.00,26.47,28.07,30.81,5.89,30.58,1015.29,2041.80,3272.96,3208.10,3455.10,349.33,319.30,13.86,0000 0000 0000 0000 000000
2013-11-15 00:41:55,-0.02,0.50,0.00,26.44,28.07,30.85,5.87,30.58,1015.28,2041.76,3272.78,3208.05,3455.04,349.86,319.11,13.86,0000 0000 0000 0000 000000
2013-11-15 00:42:55,0.04,0.50,0.00,26.46,28.07,30.88,5.97,31.00,1015.24,2041.74,3272.41,3208.02,3455.01,351.13,320.82,13.87,0000 0000 0000 0000 000000
2013-11-15 00:43:55,0.03,0.50,0.00,26.46,28.07,30.84,5.85,30.71,1015.26,2041.73,3272.17,3208.00,3455.00,349.17,319.04,13.87,0000 0000 0000 0000 000000
2013-11-15 00:44:55,0.04,0.50,0.00,26.45,28.07,30.75,5.79,30.46,1015.24,2041.72,3272.07,3208.00,3455.00,350.73,320.46,13.88,0000 0000 0000 0000 000000
2013-11-15 00:45:55,0.00,0.50,0.00,26.48,28.07,30.77,5.86,30.21,1015.29,2041.76,3272.02,3208.00,3455.00,349.67,319.79,13.89,0000 0000 0000 0000 000000
2013-11-15 00:46:56,0.04,0.50,0.00,26.48,28.07,30.77,5.92,30.83,1015.29,2041.68,3272.01,3208.00,3455.00,349.66,319.46,13.89,0000 0000 0000 0000 000000
2013-11-15 00:47:56,-0.09,0.50,0.00,26.49,28.07,30.77,5.89,30.71,1015.34,2041.73,3272.00,3208.00,3455.00,350.31,319.92,13.90,0000 0000 0000 0000 000000
2013-11-15 00:48:56,0.07,0.50,0.00,26.48,28.07,30.81,5.90,30.58,1015.36,2041.77,3272.00,3208.00,3454.98,349.87,319.50,13.90,0000 0000 0000 0000 000000
2013-11-15 00:49:56,0.02,0.50,0.00,26.49,28.07,30.85,5.86,30.54,1015.33,2041.82,3272.00,3208.00,3454.98,349.67,319.62,13.91,0000 0000 0000 0000 000000
2013-11-15 00:50:56,0.03,0.50,0.00,26.49,28.07,30.82,5.94,30.38,1015.27,2041.82,3272.00,3208.00,3454.93,350.45,320.47,13.91,0000 0000 0000 0000 000000
2013-11-15 00:51:57,-0.02,0.50,0.00,26.48,28.07,30.84,6.03,30.71,1015.19,2041.83,3271.99,3207.95,3454.80,351.24,320.88,13.92,0000 0000 0000 0000 000000
2013-11-15 00:52:57,0.08,0.50,0.00,26.47,28.07,30.83,5.83,30.75,1015.17,2041.74,3271.97,3207.94,3454.55,349.08,318.91,13.93,0000 0000 0000 0000 000000
2013-11-15 00:53:57,-0.10,0.50,0.00,26.50,28.07,30.87,5.86,30.79,1015.17,2041.72,3271.94,3207.93,3454.32,348.94,318.98,13.93,0000 0000 0000 0000 000000
2013-11-15 00:54:58,0.09,0.50,0.00,26.47,28.07,30.86,5.88,30.67,1015.17,2041.67,3271.83,3207.88,3454.20,350.13,319.87,13.94,0000 0000 0000 0000 000000
2013-11-15 00:55:58,-0.02,0.50,0.00,26.46,28.07,30.83,5.78,30.75,1015.15,2041.57,3271.62,3207.78,3454.16,349.20,319.03,13.94,0000 0000 0000 0000 000000
2013-11-15 00:56:58,0.00,0.50,0.00,26.46,28.07,30.85,5.80,30.88,1015.19,2041.56,3271.29,3207.52,3454.08,349.40,319.46,13.95,0000 0000 0000 0000 000000
2013-11-15 00:57:58,0.13,0.50,0.00,26.47,28.07,30.83,5.81,30.71,1015.16,2041.56,3271.11,3207.29,3454.03,349.65,319.43,13.96,0000 0000 0000 0000 000000
2013-11-15 00:58:59,0.01,0.50,0.00,26.47,28.07,30.87,5.98,30.79,1015.16,2041.54,3271.06,3207.17,3454.01,350.35,320.08,13.96,0000 0000 0000 0000 000000
2013-11-15 00:59:59,0.06,0.50,0.00,26.47,28.07,30.86,5.92,30.46,1015.17,2041.49,3271.02,3207.08,3454.00,350.62,320.32,13.97,0000 0000 0000 0000 000000
2013-11-15 01:00:59,0.00,0.50,0.00,26.47,28.07,30.88,5.94,30.58,1015.16,2041.56,3271.00,3207.07,3454.00,350.00,320.12,13.97,0000 0000 0000 0000 000000
2013-11-15 01:01:59,0.05,0.50,0.00,26.46,28.07,30.87,6.01,30.58,1015.18,2041.65,3271.00,3207.06,3454.00,351.62,321.25,13.98,0000 0000 0000 0000 000000
2013-11-15 01:03:00,0.09,0.50,0.00,26.45,28.07,30.90,5.90,30.67,1015.19,2041.60,3271.00,3207.02,3454.00,350.12,319.89,13.98,0000 0000 0000 0000 000000
2013-11-15 01:04:00,-0.07,0.50,0.00,26.43,28.07,30.84,5.88,30.67,1015.18,2041.56,3270.98,3207.00,3453.99,349.99,319.80,13.99,0000 0000 0000 0000 000000
2013-11-15 01:05:00,-0.02,0.50,0.00,26.45,28.07,30.79,5.79,30.46,1015.18,2041.62,3270.97,3207.00,3453.97,350.19,319.95,14.00,0000 0000 0000 0000 000000
2013-11-15 01:06:01,0.07,0.50,0.00,26.46,28.07,30.88,5.87,30.71,1015.21,2041.48,3270.83,3207.00,3453.90,349.20,319.05,14.00,0000 0000 0000 0000 000000
2013-11-15 01:07:01,-0.08,0.50,0.00,26.47,28.07,30.86,5.84,30.83,1015.17,2041.33,3270.49,3207.00,3453.74,349.75,319.45,14.01,0000 0000 0000 0000 000000
2013-11-15 01:08:01,-0.05,0.50,0.00,26.45,28.07,30.79,5.90,30.58,1015.17,2041.35,3270.28,3206.99,3453.63,349.47,319.14,14.01,0000 0000 0000 0000 000000
2013-11-15 01:09:01,0.06,0.50,0.00,26.44,28.07,30.75,5.80,30.67,1015.17,2041.28,3270.12,3206.99,3453.44,349.11,318.98,14.02,0000 0000 0000 0000 000000
2013-11-15 01:10:01,-0.02,0.50,0.00,26.43,28.07,30.76,5.73,30.58,1015.16,2041.27,3270.05,3206.95,3453.24,349.13,318.83,14.03,0000 0000 0000 0000 000000
2013-11-15 01:11:02,0.03,0.50,0.00,26.46,28.07,30.78,5.91,30.71,1015.16,2041.27,3270.02,3206.96,3453.11,350.02,319.78,14.03,0000 0000 0000 0000 000000
2013-11-15 01:12:02,0.03,0.50,0.00,26.47,28.07,30.81,5.86,30.50,1015.16,2041.24,3270.01,3206.96,3453.07,350.22,319.95,14.04,0000 0000 0000 0000 000000
2013-11-15 01:13:02,-0.02,0.50,0.00,26.47,28.07,30.86,5.79,30.38,1015.16,2041.32,3270.00,3206.91,3453.05,350.45,320.00,14.04,0000 0000 0000 0000 000000
2013-11-15 01:14:03,0.07,0.50,0.00,26.45,28.07,30.85,5.89,30.50,1015.17,2041.26,3270.00,3206.84,3453.04,349.68,319.49,14.05,0000 0000 0000 0000 000000
2013-11-15 01:15:03,-0.03,0.50,0.00,26.44,28.07,30.84,5.92,30.63,1015.18,2041.29,3270.00,3206.64,3453.02,349.58,319.41,14.05,0000 0000 0000 0000 000000
2013-11-15 01:16:03,0.09,0.50,0.00,26.43,28.07,30.91,5.93,30.33,1015.19,2041.41,3269.99,3206.65,3453.01,351.54,321.21,14.06,0000 0000 0000 0000 000000
2013-11-15 01:17:03,0.09,0.50,0.00,26.45,28.07,30.80,5.82,30.58,1015.23,2041.48,3269.99,3206.59,3453.00,349.23,319.09,14.07,0000 0000 0000 0000 000000
2013-11-15 01:18:04,0.07,0.51,0.00,26.45,28.07,30.84,5.88,30.58,1015.27,2041.56,3269.99,3206.53,3453.00,350.65,320.40,14.07,0000 0000 0000 0000 000000
2013-11-15 01:19:04,0.08,0.51,0.00,26.47,28.07,30.89,5.89,30.42,1015.24,2041.60,3269.99,3206.41,3453.00,350.22,319.99,14.08,0000 0000 0000 0000 000000
2013-11-15 01:20:04,0.02,0.51,0.00,26.47,28.07,30.86,5.89,30.58,1015.30,2041.55,3269.97,3206.28,3453.00,349.50,319.34,14.08,0000 0000 0000 0000 000000
2013-11-15 01:21:04,-0.01,0.51,0.00,26.47,28.07,30.87,5.84,30.58,1015.38,2041.48,3269.88,3206.20,3453.00,349.30,319.15,14.09,0000 0000 0000 0000 000000
2013-11-15 01:22:04,0.00,0.51,0.00,26.44,28.07,30.86,5.96,30.50,1015.40,2041.58,3269.77,3206.15,3453.00,350.46,320.41,14.10,0000 0000 0000 0000 000000
2013-11-15 01:23:05,0.14,0.51,0.00,26.43,28.07,30.80,5.77,30.67,1015.45,2041.64,3269.63,3206.08,3453.00,349.00,319.09,14.10,0000 0000 0000 0000 000000
2013-11-15 01:24:05,0.07,0.51,0.00,26.43,28.07,30.82,5.74,30.38,1015.57,2041.69,3269.43,3206.07,3452.99,349.72,319.82,14.11,0000 0000 0000 0000 000000
2013-11-15 01:25:05,0.06,0.51,0.00,26.45,28.07,30.82,5.92,30.63,1015.59,2041.60,3269.22,3206.04,3452.95,350.72,320.74,14.11,0000 0000 0000 0000 000000
2013-11-15 01:26:05,-0.08,0.51,0.00,26.46,28.07,30.80,5.80,30.54,1015.56,2041.50,3269.08,3206.02,3452.96,349.88,319.78,14.12,0000 0000 0000 0000 000000
2013-11-15 01:27:06,-0.04,0.51,0.00,26.47,28.07,30.79,5.85,30.50,1015.54,2041.52,3269.03,3206.01,3452.93,349.97,319.92,14.13,0000 0000 0000 0000 000000
2013-11-15 01:28:06,0.04,0.51,0.00,26.46,28.07,30.86,5.87,30.54,1015.59,2041.50,3269.02,3206.00,3452.86,350.09,320.10,14.13,0000 0000 0000 0000 000000
2013-11-15 01:29:06,-0.00,0.51,0.00,26.48,28.07,30.83,5.86,30.63,1015.55,2041.45,3269.00,3206.00,3452.69,349.77,319.44,14.14,0000 0000 0000 0000 000000
2013-11-15 01:30:06,0.00,0.51,0.00,26.45,28.07,30.83,5.95,30.63,1015.56,2041.59,3269.00,3206.00,3452.65,350.90,321.18,14.14,0000 0000 0000 0000 000000
2013-11-15 01:31:06,0.12,0.51,0.00,26.47,28.07,30.87,5.86,30.50,1015.56,2041.76,3269.00,3206.00,3452.60,350.14,320.02,14.15,0000 0000 0000 0000 000000
2013-11-15 01:32:07,0.12,0.51,0.00,26.46,28.07,30.82,5.88,30.50,1015.61,2041.78,3269.00,3206.00,3452.41,349.74,319.67,14.15,0000 0000 0000 0000 000000
2013-11-15 01:33:07,0.02,0.51,0.00,26.45,28.07,30.81,5.82,30.58,1015.62,2041.74,3269.00,3206.00,3452.29,349.95,319.88,14.16,0000 0000 0000 0000 000000
2013-11-15 01:34:07,-0.00,0.51,0.00,26.47,28.07,30.80,5.81,30.38,1015.63,2041.72,3269.00,3206.00,3452.16,349.30,319.26,14.17,0000 0000 0000 0000 000000
2013-11-15 01:35:08,0.01,0.51,0.00,26.47,28.07,30.77,5.89,30.42,1015.64,2041.68,3269.00,3206.00,3452.12,350.16,320.05,14.17,0000 0000 0000 0000 000000
2013-11-15 01:36:08,-0.05,0.51,0.00,26.46,28.07,30.83,5.83,30.54,1015.63,2041.70,3268.99,3205.98,3452.05,350.07,319.98,14.18,0000 0000 0000 0000 000000
2013-11-15 01:37:08,0.05,0.51,0.00,26.47,28.07,30.85,5.97,30.67,1015.63,2041.82,3268.98,3205.96,3452.03,350.89,320.72,14.18,0000 0000 0000 0000 000000
2013-11-15 01:38:08,0.10,0.51,0.00,26.49,28.07,30.83,5.79,30.54,1015.62,2041.74,3268.88,3205.94,3452.02,349.29,319.23,14.19,0000 0000 0000 0000 000000
2013-11-15 01:39:09,-0.05,0.51,0.00,26.50,28.07,30.87,5.78,30.83,1015.60,2041.67,3268.60,3205.94,3452.00,348.34,318.35,14.20,0000 0000 0000 0000 000000
2013-11-15 01:40:09,0.01,0.51,0.00,26.52,28.07,30.85,5.88,30.58,1015.63,2041.70,3268.27,3205.90,3452.00,350.22,320.05,14.20,0000 0000 0000 0000 000000
2013-11-15 01:41:09,0.06,0.51,0.00,26.53,28.07,30.81,5.79,30.58,1015.62,2041.68,3268.12,3205.75,3452.00,349.27,319.17,14.21,0000 0000 0000 0000 000000
2013-11-15 01:42:09,0.02,0.51,0.00,26.54,28.07,30.84,5.88,30.92,1015.60,2041.66,3268.06,3205.57,3452.00,349.22,319.11,14.21,0000 0000 0000 0000 000000
2013-11-15 01:43:09,0.05,0.51,0.00,26.52,28.07,30.81,5.98,30.75,1015.60,2041.62,3268.02,3205.34,3452.00,350.76,320.54,14.22,0000 0000 0000 0000 000000
2013-11-15 01:44:10,0.04,0.51,0.00,26.50,28.07,30.82,5.95,30.79,1015.63,2041.53,3268.00,3205.20,3451.99,349.91,319.80,14.22,0000 0000 0000 0000 000000
2013-11-15 01:45:10,-0.04,0.51,0.00,26.51,28.07,30.81,5.91,30.38,1015.64,2041.45,3268.00,3205.15,3451.98,350.70,320.51,14.23,0000 0000 0000 0000 000000
2013-11-15 01:46:10,-0.08,0.51,0.00,26.49,28.07,30.81,5.95,30.29,1015.64,2041.50,3268.00,3205.07,3451.96,351.51,321.28,14.24,0000 0000 0000 0000 000000
2013-11-15 01:47:11,0.07,0.51,0.00,26.48,28.07,30.81,5.92,30.79,1015.64,2041.45,3267.99,3205.03,3451.90,349.07,319.05,14.24,0000 0000 0000 0000 000000
2013-11-15 01:48:11,-0.00,0.51,0.00,26.50,28.07,30.86,5.86,30.67,1015.64,2041.55,3267.99,3205.02,3451.89,350.46,320.63,14.25,0000 0000 0000 0000 000000
2013-11-15 01:49:11,0.08,0.51,0.00,26.48,28.07,30.84,5.91,30.42,1015.64,2041.66,3267.99,3205.04,3451.86,350.78,320.14,14.25,0000 0000 0000 0000 000000
2013-11-15 01:50:12,0.08,0.51,0.00,26.48,28.07,30.87,5.82,30.54,1015.64,2041.61,3267.97,3205.01,3451.61,350.11,320.00,14.26,0000 0000 0000 0000 000000
2013-11-15 01:51:12,0.02,0.51,0.00,26.47,28.07,30.89,5.81,30.75,1015.64,2041.60,3267.95,3205.00,3451.38,349.70,319.63,14.27,0000 0000 0000 0000 000000
2013-11-15 01:52:12,0.01,0.51,0.00,26.50,28.08,30.87,5.85,30.58,1015.64,2041.70,3267.92,3205.02,3451.34,350.45,320.29,14.27,0000 0000 0000 0000 000000
2013-11-15 01:53:13,0.08,0.51,0.00,26.52,28.08,30.88,5.88,30.96,1015.61,2041.70,3267.78,3205.01,3451.18,349.98,319.83,14.28,0000 0000 0000 0000 000000
2013-11-15 01:54:13,0.03,0.51,0.00,26.51,28.08,30.90,5.86,31.04,1015.63,2041.56,3267.46,3205.00,3451.07,350.34,320.18,14.28,0000 0000 0000 0000 000000
2013-11-15 01:55:13,-0.07,0.51,0.00,26.50,28.08,30.86,5.88,30.96,1015.64,2041.32,3267.18,3204.99,3451.02,349.60,319.31,14.29,0000 0000 0000 0000 000000
2013-11-15 01:56:14,-0.09,0.51,0.00,26.49,28.08,30.82,5.73,30.58,1015.64,2041.35,3267.07,3204.97,3451.00,349.60,319.52,14.29,0000 0000 0000 0000 000000
2013-11-15 01:57:14,0.04,0.51,0.00,26.48,28.08,30.84,5.93,30.75,1015.63,2041.37,3267.02,3204.98,3451.00,350.01,319.90,14.30,0000 0000 0000 0000 000000
2013-11-15 01:58:14,0.01,0.51,0.00,26.48,28.08,30.86,5.87,30.83,1015.61,2041.38,3267.00,3204.98,3451.00,350.07,319.95,14.31,0000 0000 0000 0000 000000
2013-11-15 01:59:14,-0.01,0.51,0.00,26.48,28.08,30.91,5.97,30.75,1015.63,2041.44,3267.00,3204.96,3451.00,350.47,320.69,14.31,0000 0000 0000 0000 000000
2013-11-15 02:00:15,0.08,0.51,0.00,26.47,28.09,30.87,5.90,31.00,1015.60,2041.57,3267.00,3204.94,3451.00,349.25,319.21,14.32,0000 0000 0000 0000 000000
2013-11-15 02:01:15,0.08,0.51,0.00,26.50,28.09,30.76,5.75,31.00,1015.59,2041.47,3267.00,3204.76,3450.97,348.68,317.98,14.32,0000 0000 0000 0000 000000
2013-11-15 02:02:15,-0.02,0.51,0.00,26.53,28.09,30.77,5.88,30.79,1015.59,2041.41,3266.97,3204.52,3450.96,350.31,320.25,14.33,0000 0000 0000 0000 000000
2013-11-15 02:03:15,0.01,0.51,0.00,26.53,28.09,30.88,5.87,30.83,1015.56,2041.30,3266.84,3204.25,3450.85,348.08,318.06,14.34,0000 0000 0000 0000 000000
2013-11-15 02:04:15,-0.01,0.51,0.00,26.51,28.09,30.87,5.86,31.08,1015.59,2041.29,3266.60,3204.11,3450.62,348.80,318.75,14.34,0000 0000 0000 0000 000000
2013-11-15 02:05:16,0.08,0.51,0.00,26.49,28.09,30.85,6.03,31.13,1015.63,2041.23,3266.31,3204.05,3450.36,349.99,319.87,14.35,0000 0000 0000 0000 000000
2013-11-15 02:06:16,0.07,0.51,0.00,26.51,28.09,30.89,5.86,30.92,1015.61,2041.25,3266.13,3204.03,3450.21,349.30,319.48,14.35,0000 0000 0000 0000 000000
2013-11-15 02:07:16,0.04,0.51,0.00,26.52,28.09,30.85,5.87,30.83,1015.61,2041.22,3266.06,3204.01,3450.09,349.43,318.94,14.36,0000 0000 0000 0000 000000
2013-11-15 02:08:16,0.01,0.51,0.00,26.51,28.09,30.83,5.84,30.92,1015.62,2041.26,3266.03,3204.00,3450.04,350.16,320.00,14.37,0000 0000 0000 0000 000000
2013-11-15 02:09:17,0.04,0.51,0.00,26.48,28.09,30.84,5.84,31.38,1015.62,2041.22,3266.00,3204.00,3450.01,350.66,320.50,14.37,0000 0000 0000 0000 000000
2013-11-15 02:10:17,-0.02,0.51,0.00,26.47,28.09,30.88,5.84,31.04,1015.62,2041.15,3266.00,3204.00,3450.00,349.33,319.29,14.38,0000 0000 0000 0000 000000
2013-11-15 02:11:18,-0.03,0.51,0.00,26.48,28.09,30.84,5.92,30.96,1015.62,2041.20,3266.00,3204.00,3450.00,349.86,319.76,14.38,0000 0000 0000 0000 000000
2013-11-15 02:12:18,0.01,0.51,0.00,26.48,28.10,30.84,5.93,31.08,1015.56,2041.19,3266.00,3204.00,3450.00,350.89,320.69,14.39,0000 0000 0000 0000 000000
2013-11-15 02:13:18,-0.00,0.51,0.00,26.47,28.10,30.80,5.88,31.08,1015.54,2041.15,3265.99,3203.98,3449.99,349.82,319.71,14.39,0000 0000 0000 0000 000000
2013-11-15 02:14:18,-0.01,0.51,0.00,26.46,28.10,30.88,5.83,31.00,1015.55,2041.12,3265.98,3203.99,3449.96,349.91,319.80,14.40,0000 0000 0000 0000 000000
2013-11-15 02:15:19,-0.01,0.51,0.00,26.46,28.10,30.78,5.86,31.04,1015.59,2041.14,3265.94,3203.95,3449.93,350.49,319.89,14.41,0000 0000 0000 0000 000000
2013-11-15 02:16:19,0.03,0.51,0.00,26.45,28.10,30.82,5.98,31.25,1015.59,2041.16,3265.78,3203.95,3449.91,350.23,320.11,14.41,0000 0000 0000 0000 000000
2013-11-15 02:17:19,0.07,0.51,0.00,26.44,28.09,30.88,5.82,30.92,1015.59,2041.14,3265.56,3203.91,3449.82,348.92,318.93,14.42,0000 0000 0000 0000 000000
2013-11-15 02:18:19,0.02,0.51,0.00,26.45,28.10,30.83,6.02,31.17,1015.58,2041.16,3265.34,3203.86,3449.74,351.20,320.43,14.42,0000 0000 0000 0000 000000
2013-11-15 02:19:20,0.07,0.51,0.00,26.44,28.09,30.83,5.87,31.33,1015.57,2041.14,3265.16,3203.53,3449.46,349.40,319.07,14.43,0000 0000 0000 0000 000000
2013-11-15 02:20:20,0.10,0.51,0.00,26.45,28.10,30.89,5.93,31.04,1015.59,2041.15,3265.06,3203.24,3449.20,350.08,320.07,14.44,0000 0000 0000 0000 000000
2013-11-15 02:21:20,0.13,0.51,0.00,26.46,28.10,30.86,5.91,30.79,1015.62,2041.21,3265.03,3203.15,3449.11,350.80,320.08,14.44,0000 0000 0000 0000 000000
2013-11-15 02:22:20,0.07,0.52,0.00,26.44,28.10,30.81,5.83,30.75,1015.64,2041.16,3265.01,3203.09,3449.05,349.88,319.84,14.45,0000 0000 0000 0000 000000
2013-11-15 02:23:21,-0.02,0.52,0.00,26.44,28.10,30.88,5.75,30.71,1015.64,2041.13,3265.00,3203.04,3449.01,348.82,319.04,14.45,0000 0000 0000 0000 000000
2013-11-15 02:24:21,0.00,0.52,0.00,26.46,28.10,30.77,5.81,30.83,1015.64,2041.15,3265.00,3203.02,3449.00,349.46,320.06,14.46,0000 0000 0000 0000 000000
2013-11-15 02:25:21,0.01,0.52,0.00,26.45,28.10,30.77,5.86,30.67,1015.64,2041.11,3264.98,3203.01,3449.00,349.87,319.90,14.46,0000 0000 0000 0000 000000
2013-11-15 02:26:22,-0.02,0.52,0.00,26.44,28.10,30.84,6.08,31.04,1015.64,2041.05,3264.92,3203.00,3449.00,351.21,321.05,14.47,0000 0000 0000 0000 000000
2013-11-15 02:27:22,-0.03,0.52,0.00,26.45,28.10,30.85,5.87,30.42,1015.64,2041.05,3264.71,3203.00,3448.99,350.69,320.56,14.48,0000 0000 0000 0000 000000
2013-11-15 02:28:22,0.04,0.52,0.00,26.44,28.10,30.83,5.85,30.63,1015.64,2041.14,3264.60,3203.00,3448.99,349.67,319.65,14.48,0000 0000 0000 0000 000000
2013-11-15 02:29:23,0.05,0.52,0.00,26.41,28.09,30.79,5.92,30.88,1015.64,2041.11,3264.37,3203.00,3448.98,349.67,319.67,14.49,0000 0000 0000 0000 000000
2013-11-15 02:30:23,0.02,0.52,0.00,26.42,28.09,30.79,5.91,30.46,1015.64,2041.10,3264.16,3202.99,3448.97,351.00,320.87,14.49,0000 0000 0000 0000 000000
2013-11-15 02:31:23,0.01,0.52,0.00,26.44,28.09,30.81,5.87,30.67,1015.64,2041.06,3264.06,3202.99,3448.86,350.58,320.46,14.50,0000 0000 0000 0000 000000
2013-11-15 02:32:23,0.03,0.52,0.00,26.42,28.10,30.81,5.95,30.79,1015.64,2041.10,3264.02,3202.95,3448.72,350.08,320.04,14.51,0000 0000 0000 0000 000000
2013-11-15 02:33:23,0.06,0.52,0.00,26.41,28.09,30.79,5.98,30.29,1015.64,2041.15,3264.00,3202.91,3448.57,350.91,320.80,14.51,0000 0000 0000 0000 000000
2013-11-15 02:34:24,0.06,0.52,0.00,26.43,28.09,30.89,5.92,30.46,1015.64,2041.15,3264.00,3202.83,3448.43,350.16,320.09,14.52,0000 0000 0000 0000 000000
2013-11-15 02:35:24,0.03,0.52,0.00,26.42,28.09,30.82,5.77,30.46,1015.65,2041.15,3264.00,3202.85,3448.32,349.44,319.44,14.52,0000 0000 0000 0000 000000
2013-11-15 02:36:24,0.03,0.52,0.00,26.43,28.09,30.83,5.81,30.67,1015.64,2041.19,3264.00,3202.72,3448.19,348.93,319.19,14.53,0000 0000 0000 0000 000000